Location: Gebenbach
(49.5378°N, 11.8735°E)
Time: 14:08:26
(UTC+00:00)

H-2A R/B - Pass Details

Date: 29 October 2020
Orbit: 577 x 656 km, 98.5° (Epoch: 29 November)

Event Time Altitude Azimuth Distance (km) Brightness Sun altitude
Rises 16:59:00 0° 8° (N) 2,848 5.3 -10.9°
Reaches altitude 10° 17:01:16 10° 1° (N) 1,931 4.5 -11.2°
Maximum altitude 17:05:10 39° 293° (WNW) 882 3.4 -11.9°
Drops below altitude 10° 17:08:59 10° 224° (SW) 1,892 5.3 -12.5°
Sets 17:11:12 0° 217° (SW) 2,783 6.1 -12.8°
